Weather Roundup
Issued by NWS

Home | Current Version | Previous Version | Text Only | Print | Product List | Glossary On
Versions: 1 2 3 4 5 6 7 8 9 10 11 12 13 14 15 16 17 18 19 20 21 22 23 24 25 26 27 28 29 30 31 32 33 34 35 36 37 38 39 40 41 42 43 44 45 46 47 48 49 50
000
NZUS93 KARX 210910
HRRWXR

CURRENT HOURLY OBSERVATIONS ACROSS
MUCH OF THE UPPER MISSISSIPPI VALLEY
NATIONAL WEATHER SERVICE LA CROSSE WI
300 AM CST SUN DEC 21 2014


...SOUTHEAST MINNESOTA...


CITY           SKY/WX    TMP DP  RH WIND       PRES   REMARKS
ROCHESTER      CLOUDY    31  30  96 S12       30.04F FOG     WCI  22
ROCHESTER/MAYO CLOUDY    31  31  98 SE9G16    30.04F WCI  23
WINONA         CLOUDY    34  32  93 SE6       30.09F FOG     WCI  29
AUSTIN         CLOUDY    32  30  93 SE7       30.01F FOG     WCI  26
ALBERT LEA     FOG       34  34 100 SE10      29.99F VSB 1   WCI  26
DODGE CENTER   CLOUDY    32  32 100 S15       30.01F FOG     WCI  22
PRESTON        FOG       30  30  99 S12       30.05F VSB 3/4 WCI  21
OWATONNA       CLOUDY    34  30  86 S12       30.00F FOG     WCI  25
FARIBAULT      CLOUDY    34  30  86 SE8       30.01F FOG     WCI  27
$$

...ELSEWHERE IN MINNESOTA...


CITY           SKY/WX    TMP DP  RH WIND       PRES   REMARKS
MINNEAPOLIS    CLOUDY    31  28  89 SE9       30.02F FOG     WCI  23
INTNL FALLS    LGT SNOW  28  26  92 SE8       29.89F VSB 3/4 WCI  20
DULUTH         LGT SNOW  29  26  89 S13       29.97F FOG     WCI  19
RED WING       CLOUDY    34  28  80 SE7       30.04F FOG     WCI  28
REDWOOD FALLS  CLOUDY    32  30  92 S12       29.93F WCI  23
MANKATO        CLOUDY    34  28  80 S12       29.98F WCI  25
WORTHINGTON    CLOUDY    30  28  93 S12       29.91F WCI  21
FAIRMONT       CLOUDY    32  28  86 S15       29.95F WCI  22
$$

...SOUTHWEST WISCONSIN...


CITY           SKY/WX    TMP DP  RH WIND       PRES   REMARKS
LA CROSSE      CLOUDY    33  29  85 SE8       30.11F FOG     WCI  26
PRAIRIE DU CHI CLOUDY    32  31  96 SE5       30.13F FOG     WCI  27
BOSCOBEL       CLOUDY    33  29  85 SE5       30.14F FOG     WCI  29
LONE ROCK      CLOUDY    35  28  75 SE7       30.15F HAZE    WCI  29
PLATTEVILLE    CLOUDY    32  31  97 CALM      30.15F
FORT MC COY    CLOUDY    31  28  88 SE6       30.13F FOG     WCI  25
CAMP DOUGLAS   CLOUDY    30  30 100 SE7       30.13F WCI  23
VIROQUA        CLOUDY    30  30 100 SE8       30.10S VSB 3/4 WCI  22
WIS DELLS      CLOUDY    30  27  90 S7        30.14F FOG     WCI  23
$$

...ELSEWHERE IN WISCONSIN...


CITY           SKY/WX    TMP DP  RH WIND       PRES   REMARKS
MILWAUKEE      CLOUDY    32  25  75 S6        30.22S WCI  26
MADISON        CLOUDY    31  28  89 S7        30.17F FOG     WCI  24
GREEN BAY      CLOUDY    30  27  88 S6        30.20S FOG     WCI  24
EAU CLAIRE     CLOUDY    31  27  85 S8        30.07F WCI  23
BLACK RVR FLS  CLOUDY    31  28  88 SE5       30.11F FOG     WCI  26
MEDFORD        CLOUDY    28  27  96 S8        30.08F FOG     WCI  19
WAUSAU         CLOUDY    28  26  92 S6        30.11F FOG     WCI  22
WIS RAPIDS     CLOUDY    29  25  85 S3        30.15F FOG
MARSHFIELD     CLOUDY    29  26  89 S6        30.11F FOG     WCI  23
RICE LAKE      CLOUDY    31  28  91 SE7       30.07F FOG     WCI  24
$$

...NORTHEAST IOWA...


CITY           SKY/WX    TMP DP  RH WIND       PRES   REMARKS
DECORAH        FOG       32  32 100 SE9       30.07F VSB 1/4 WCI  24
MASON CITY     FOG       32  31  96 SE14      30.02F VSB 3/4 WCI  22
CHARLES CITY   FOG       32  32 100 SE12      30.05F VSB 1/2 WCI  23
OELWEIN        FOG       32  32 100 SE12      30.08F VSB 1/4 WCI  23
$$

...ELSEWHERE IN IOWA...


CITY           SKY/WX    TMP DP  RH WIND       PRES   REMARKS
DES MOINES     CLOUDY    39  35  86 S10       30.05F WCI  32
IOWA CITY      CLOUDY    35  34  96 SE7       30.15S FOG     WCI  29
FORT DODGE     CLOUDY    36  34  93 S10       29.99F WCI  28
$$

...NORTHERN ILLINOIS...


CITY           SKY/WX    TMP DP  RH WIND       PRES   REMARKS
CHICAGO-OHARE  CLOUDY    32  26  78 S7        30.23S WCI  26
CHICAGO-MIDWAY CLOUDY    34  27  75 S7        30.24F WCI  28
MOLINE         CLOUDY    35  32  88 S6        30.16F FOG     WCI  30
ROCKFORD       CLOUDY    32  28  85 S7        30.22S WCI  26
PEORIA         CLOUDY    36  29  75 SE7       30.21F WCI  30
$$

NOTE: "FAIR" INDICATES FEW OR NO CLOUDS BELOW 12,000 FEET WITH NO
SIGNIFICANT WEATHER AND/OR OBSTRUCTIONS TO VISIBILITY. WIND
SPEEDS ARE IN MILES-PER-HOUR.



USA.gov is the U.S. government's official web portal to all federal, state and local government web resources and services.